Location: Newark
(34.6283°N, 36.0776°E)
Time: 08:27:45
(UTC+00:00)

Tiros 1 despin weight - Pass Details

Date: 25 September 2019
Orbit: 594 x 643 km, 48.2° (Epoch: 14 October)

Event Time Altitude Azimuth Distance (km) Brightness Sun altitude
Rises 10:23:52 0° 296° (WNW) 2,889 ? 52.2°
Reaches altitude 10° 10:27:11 10° 321° (NW) 1,971 ? 51.9°
Maximum altitude 10:29:42 15° 355° (N) 1,684 ? 51.7°
Drops below altitude 10° 10:32:12 10° 29° (NNE) 1,955 ? 51.4°
Sets 10:35:27 0° 54° (NE) 2,848 ? 51.1°
